TJS-16

Last updated on Mon Oct 20 2025 00:02:51 GMT+0000 (Coordinated Universal Time)

1 63397U 25064A 25292.70289249 -.00000105 00000+0 00000+0 0 9991 2 63397 0.4750 80.7874 0002749 218.2729 143.0153 1.00271582 1973
UTC large
Height (km)
Speed (km/s)
/
Latitude / Longitude
Inclination (degrees)
Orbital Period (minutes)
Azimuth
Elevation
Range (km)
Doppler Factor

Next 0 passes for location: London (51.5072 / 0.1276)

Sorry there are no passes over London.